Home > Weather > Victoria > Past weeks

Flag for Seychelles Past Weather in Victoria, Seychelles — Yesterday and Last 2 Weeks

Now
79 °F

Partly sunny.


Feels Like: 82 °F
Forecast: 72 / 78 °F
Wind: 17 mph from Southeast

Location: National Airport

Current Time: Aug 27, 2016 at 3:51:40 PM

Latest Report: Aug 27, 2016 at 3:00 PM


Visibility: N/A

Pressure: 29.89 "Hg

Humidity: 79%

Dew Point: 72 °F

Location of VictoriaLocation

Past Weather in Victoria — Graph

°F

Victoria Temperature Yesterday

Maximum temperature yesterday: 84 °F (at 12:00 PM)
Minimum temperature yesterday: 75 °F (at 4:00 AM)
Average temperature yesterday: 79 °F

High & Low Weather Summary for the Past Weeks

 TemperatureHumidityPressure
High84 °F (Aug 13, 1:00 PM)94% (Aug 15, 12:00 AM)29.98 "Hg (Aug 15, 12:00 AM)
Low73 °F (Aug 27, 6:00 AM)62% (Aug 22, 3:00 PM)29.83 "Hg (Aug 17, 4:00 PM)
Average79 °F80%29.92 "Hg
* Reported Aug 12 2:00 PM — Aug 27 2:00 PM, Victoria, Weather by CustomWeather, © 2016

Note: Actual official high and low records may vary slightly from our data, if they occured in-between our weather recording intervals... More about our weather records

Advertising

Victoria Weather History for the Previous 24 Hours

Scroll right to see more
 ConditionsComfort  
Time TempWeatherWind HumidityBarometerVisibility
2:00 PM
Sat, Aug 27
82 °FScattered clouds.18 mph70%29.89 "HgN/A
1:00 PM82 °FScattered clouds.18 mph70%29.92 "HgN/A
12:00 PM82 °FBroken clouds.18 mph70%29.95 "HgN/A
11:00 AM81 °FBroken clouds.18 mph74%29.98 "HgN/A
10:00 AM81 °FBroken clouds.15 mph79%29.98 "HgN/A
9:00 AM79 °FPartly sunny.18 mph84%29.98 "HgN/A
8:00 AM79 °FPartly sunny.15 mph84%29.98 "HgN/A
7:00 AM75 °FLight rain. Partly sunny.8 mph94%29.95 "Hg3 mi
6:00 AM73 °FHeavy rain. Passing clouds.21 mph94%29.92 "Hg2 mi
5:00 AM75 °FHeavy rain. Passing clouds.14 mph89%29.92 "Hg2 mi
4:00 AM77 °FSprinkles. Passing clouds.13 mph89%29.89 "HgN/A
3:00 AM77 °FPartly cloudy.13 mph83%29.89 "HgN/A
2:00 AM77 °FSprinkles. Passing clouds.14 mph94%29.92 "HgN/A
1:00 AM77 °FSprinkles. Partly cloudy.12 mph89%29.92 "HgN/A
12:00 AM77 °FRain showers. Partly cloudy.12 mph89%29.95 "HgN/A
11:00 PM
Fri, Aug 26
77 °FPassing clouds.10 mph89%29.95 "HgN/A
10:00 PM77 °FPassing clouds.12 mph89%29.95 "HgN/A
9:00 PM79 °FPassing clouds.8 mph84%29.95 "HgN/A
8:00 PM79 °FPassing clouds.10 mph84%29.92 "HgN/A
7:00 PM79 °FPassing clouds.9 mph84%29.92 "HgN/A
6:00 PM79 °FPartly sunny.10 mph84%29.89 "HgN/A
5:00 PM81 °FPartly sunny.10 mph79%29.89 "HgN/A
4:00 PM82 °FScattered clouds.13 mph74%29.89 "HgN/A
3:00 PM82 °FScattered clouds.13 mph74%29.86 "HgN/A
Weather by CustomWeather, © 2016

See weather overviewHow to use our weather pages